Rutherfordton, NC

1:09 AM EDT on March 27, 2017 (GMT -0400)
Rutherford County-Marchman

Weather History for KFQD - June, 2013

Change the Weather History Date:

Thursday, June 27, 2013

  Actual Average (KAVL) Record (KAVL)
Temperature  
Mean Temperature 76 °F -  
Max Temperature 85 °F 82 °F 97 °F (1952)
Min Temperature 66 °F 60 °F 47 °F (1979)
Cooling Degree Days 10    
Growing Degree Days 26 (Base 50)    
Moisture  
Dew Point 70 °F    
Average Humidity 82    
Maximum Humidity 98    
Minimum Humidity 65    
Precipitation  
Precipitation 0.05 in - - ()
Sea Level Pressure  
Sea Level Pressure 29.87 in    
Wind  
Wind Speed 3 mph (SSW)    
Max Wind Speed 12 mph    
Max Gust Speed 16 mph    
Visibility 9 miles    
Events Rain    
Averages and records for this station are not official NWS values.
T = Trace of Precipitation, MM = Missing Value Source: NWS Daily Summary

Daily Weather History Graph

Daily Weather History Graph

Search for Another Location

Airport or City:

Trip Planner

Search our weather history database for the weather conditions in past years. The results will help you decide how hot, cold, wet, or windy it might be!

Date:

Astronomy

Jun. 27, 2013 Rise Set
Actual Time 6:14 AM EDT 8:46 PM EDT
Civil Twilight 5:44 AM EDT 9:16 PM EDT
Nautical Twilight 5:07 AM EDT 9:53 PM EDT
Astronomical Twilight 4:26 AM EDT 10:34 PM EDT
Moon 11:55 PM EDT 11:03 AM EDT
Length of Visible Light 15h 31m
Length of Day
14h 32m
Waning Gibbous, 76% of the Moon is Illuminated
Jun 27
Waning Gibbous
Jun 30
Last Quarter
Jul 8
New
Jul 15
First Quarter
Jul 22
Full

Hourly Weather History & Observations

Time (EDT) Temp. Heat Index Dew Point Humidity Pressure Visibility Wind Dir Wind Speed Gust Speed Precip Events Conditions
12:15 AM 70.7 °F - 68.7 °F 93% 29.98 in 10.0 mi Calm Calm - N/A   Clear
12:35 AM 70.7 °F - 69.1 °F 95% 29.98 in 7.0 mi Calm Calm - N/A   Clear
12:55 AM 70.0 °F - 68.2 °F 94% 29.98 in 10.0 mi Calm Calm - N/A   Clear
1:15 AM 69.4 °F - 68.0 °F 95% 29.99 in 7.0 mi Calm Calm - N/A   Scattered Clouds
1:35 AM 69.6 °F - 68.2 °F 95% 29.97 in 7.0 mi Calm Calm - N/A   Mostly Cloudy
2:15 AM 68.9 °F - 67.6 °F 96% 29.95 in 7.0 mi South 5.8 mph - N/A   Clear
2:35 AM 67.6 °F - 67.1 °F 98% 29.94 in 4.0 mi SSW 8.1 mph - N/A   Clear
2:55 AM 69.1 °F - 67.5 °F 95% 29.93 in 10.0 mi East 3.5 mph - N/A   Clear
3:15 AM 68.0 °F - 67.5 °F 98% 29.92 in 7.0 mi Calm Calm - N/A   Clear
3:35 AM 67.6 °F - 66.7 °F 97% 29.91 in 7.0 mi Calm Calm - N/A   Clear
3:55 AM 68.9 °F - 67.3 °F 95% 29.91 in 10.0 mi Calm Calm - N/A   Clear
4:15 AM 66.9 °F - 66.0 °F 97% 29.89 in 5.0 mi SSE 4.6 mph - N/A   Clear
4:35 AM 68.0 °F - 66.9 °F 96% 29.91 in 7.0 mi SSW 10.4 mph - N/A   Mostly Cloudy
4:55 AM 69.8 °F - 67.8 °F 93% 29.92 in 10.0 mi South 3.5 mph - N/A   Overcast
5:15 AM 68.2 °F - 67.3 °F 97% 29.93 in 7.0 mi West 6.9 mph 16.1 mph N/A   Overcast
5:35 AM 68.7 °F - 67.8 °F 97% 29.93 in 7.0 mi West 8.1 mph - N/A   Overcast
5:55 AM 69.3 °F - 67.5 °F 94% 29.92 in 10.0 mi West 5.8 mph - N/A Rain Light Rain
6:15 AM 70.2 °F - 66.0 °F 87% 29.92 in 10.0 mi WSW 5.8 mph - N/A   Scattered Clouds
6:35 AM 70.7 °F - 64.6 °F 81% 29.91 in 10.0 mi West 6.9 mph - N/A   Scattered Clouds
6:55 AM 70.7 °F - 63.9 °F 79% 29.91 in 10.0 mi West 11.5 mph - N/A   Scattered Clouds
7:15 AM 70.7 °F - 64.4 °F 80% 29.91 in 10.0 mi West 4.6 mph - N/A   Scattered Clouds
7:35 AM 70.2 °F - 65.5 °F 85% 29.91 in 10.0 mi SSW 11.5 mph - N/A   Scattered Clouds
7:55 AM 70.9 °F - 65.5 °F 83% 29.90 in 10.0 mi WSW 3.5 mph - N/A   Scattered Clouds
8:15 AM 72.3 °F - 66.2 °F 81% 29.89 in 10.0 mi Calm Calm - N/A   Clear
8:35 AM 72.0 °F - 66.6 °F 83% 29.90 in 10.0 mi South 3.5 mph - N/A   Clear
8:55 AM 72.7 °F - 65.5 °F 78% 29.91 in 10.0 mi Calm Calm - N/A   Clear
9:15 AM 72.7 °F - 65.5 °F 78% 29.90 in 10.0 mi SW 3.5 mph - N/A   Clear
9:35 AM 73.0 °F - 65.5 °F 77% 29.89 in 10.0 mi Calm Calm - N/A   Clear
9:55 AM 73.4 °F - 67.3 °F 81% 29.89 in 10.0 mi SSW 9.2 mph - N/A   Scattered Clouds
10:15 AM 73.6 °F - 67.8 °F 82% 29.90 in 10.0 mi SW 3.5 mph - N/A   Mostly Cloudy
10:35 AM 74.7 °F - 69.3 °F 83% 29.90 in 10.0 mi Calm Calm - N/A   Scattered Clouds
10:55 AM 75.6 °F - 70.0 °F 83% 29.89 in 10.0 mi South 4.6 mph - N/A   Clear
11:15 AM 76.5 °F - 70.3 °F 81% 29.89 in 10.0 mi South 8.1 mph - N/A   Clear
11:35 AM 77.4 °F - 70.7 °F 80% 29.89 in 10.0 mi Calm Calm - N/A   Clear
11:55 AM 79.0 °F - 70.7 °F 76% 29.89 in 10.0 mi South 3.5 mph - N/A   Clear
12:15 PM 79.7 °F - 70.7 °F 74% 29.89 in 10.0 mi SSW 3.5 mph - N/A   Clear
12:35 PM 80.1 °F 83.6 °F 71.1 °F 74% 29.89 in 10.0 mi South 4.6 mph - N/A   Scattered Clouds
12:55 PM 81.1 °F 85.6 °F 72.1 °F 74% 29.87 in 10.0 mi SW 4.6 mph - N/A   Scattered Clouds
1:15 PM 82.6 °F 87.6 °F 72.0 °F 70% 29.87 in 10.0 mi South 6.9 mph - N/A   Clear
1:35 PM 83.3 °F 88.4 °F 71.8 °F 68% 29.87 in 10.0 mi South 6.9 mph - N/A   Mostly Cloudy
1:55 PM 82.0 °F 86.7 °F 71.6 °F 71% 29.86 in 10.0 mi South 5.8 mph - N/A   Overcast
2:15 PM 83.3 °F 89.0 °F 72.7 °F 70% 29.85 in 10.0 mi SSW 3.5 mph - N/A   Overcast
2:35 PM 84.6 °F 90.3 °F 72.0 °F 66% 29.85 in 10.0 mi SSW 4.6 mph - N/A   Mostly Cloudy
2:55 PM 84.2 °F 89.9 °F 72.0 °F 67% 29.84 in 10.0 mi South 3.5 mph - N/A   Mostly Cloudy
3:15 PM 81.0 °F 86.3 °F 74.1 °F 80% 29.83 in 7.0 mi Calm Calm - 0.04 in Rain Light Rain
3:35 PM 84.4 °F 92.4 °F 74.8 °F 73% 29.82 in 10.0 mi SE 5.8 mph - 0.05 in   Scattered Clouds
3:55 PM 84.0 °F 91.5 °F 74.5 °F 73% 29.81 in 10.0 mi South 5.8 mph - 0.05 in   Scattered Clouds
4:15 PM 84.6 °F 92.8 °F 75.0 °F 73% 29.81 in 10.0 mi Calm Calm - N/A   Mostly Cloudy
4:35 PM 85.1 °F 91.8 °F 73.2 °F 67% 29.80 in 10.0 mi South 5.8 mph - N/A   Mostly Cloudy
4:55 PM 82.6 °F 88.3 °F 73.0 °F 73% 29.80 in 10.0 mi South 5.8 mph - N/A   Mostly Cloudy
5:15 PM 82.0 °F 87.0 °F 72.3 °F 72% 29.79 in 10.0 mi SSE 6.9 mph - N/A   Scattered Clouds
5:35 PM 82.6 °F 88.8 °F 73.9 °F 75% 29.79 in 10.0 mi Calm Calm - N/A   Clear
5:55 PM 82.8 °F 89.2 °F 74.1 °F 75% 29.79 in 10.0 mi Calm Calm - N/A   Scattered Clouds
6:15 PM 82.9 °F 89.9 °F 74.7 °F 76% 29.78 in 10.0 mi Calm Calm - N/A   Scattered Clouds
6:35 PM 83.3 °F 91.1 °F 75.6 °F 77% 29.79 in 10.0 mi Calm Calm - N/A   Clear
6:55 PM 84.4 °F 92.7 °F 75.4 °F 74% 29.78 in 10.0 mi West 3.5 mph - N/A   Clear
7:15 PM 82.8 °F 88.4 °F 73.0 °F 72% 29.79 in 10.0 mi WSW 3.5 mph - N/A   Clear
7:35 PM 81.5 °F 85.5 °F 70.9 °F 70% 29.80 in 10.0 mi Calm Calm - N/A   Clear
7:55 PM 78.8 °F - 72.1 °F 80% 29.80 in 10.0 mi SW 3.5 mph - N/A   Scattered Clouds
8:15 PM 80.8 °F 83.5 °F 68.2 °F 65% 29.80 in 10.0 mi Calm Calm - N/A   Mostly Cloudy
8:35 PM 79.2 °F - 70.3 °F 74% 29.81 in 10.0 mi Calm Calm - N/A   Mostly Cloudy
8:55 PM 78.8 °F - 70.2 °F 75% 29.81 in 10.0 mi Calm Calm - N/A   Mostly Cloudy
9:15 PM 75.4 °F - 72.0 °F 89% 29.81 in 10.0 mi Calm Calm - N/A   Overcast
9:35 PM 78.6 °F - 70.9 °F 77% 29.83 in 10.0 mi Calm Calm - N/A   Overcast
9:55 PM 78.1 °F - 68.9 °F 73% 29.84 in 10.0 mi WNW 3.5 mph - N/A   Mostly Cloudy
10:15 PM 77.2 °F - 68.9 °F 76% 29.83 in 10.0 mi Calm Calm - N/A   Clear
10:35 PM 74.8 °F - 71.6 °F 90% 29.83 in 10.0 mi Calm Calm - N/A   Clear
10:55 PM 74.3 °F - 71.6 °F 91% 29.83 in 10.0 mi SE 3.5 mph - N/A   Clear
11:15 PM 73.9 °F - 71.6 °F 92% 29.83 in 10.0 mi Calm Calm - N/A   Clear
11:35 PM 74.7 °F - 71.2 °F 89% 29.83 in 10.0 mi Calm Calm - N/A   Scattered Clouds
11:55 PM 74.5 °F - 71.4 °F 90% 29.83 in 10.0 mi Calm Calm - N/A Rain Light Rain